Location: Caltech
(34.1382°N, 118.1253°W)
Time: 13:03:47
(UTC-07:00)

OAO 2 Rocket - Visible Passes

Search period start: 30 March 2015 00:00
Search period end: 09 April 2015 00:00
Orbit: 678 x 747 km, 35.0° (Epoch: 30 March)

Date Brightness Start Highest point End Pass type
(mag) Time Alt. Az. Time Alt. Az. Time Alt. Az.
30 Mar 5.7 05:09:01 10° S 05:11:31 14° SSE 05:14:11 10° ESE visible
31 Mar 4.6 05:53:57 10° SW 05:58:35 34° SSE 06:03:11 10° E visible
01 Apr 5.0 04:59:16 19° S 05:01:20 24° SSE 05:05:29 10° E visible
02 Apr 5.6 04:05:09 16° SE 04:05:09 16° SE 04:07:24 10° ESE visible
02 Apr 3.9 05:44:09 14° SW 05:48:29 52° SSE 05:53:29 10° E visible
03 Apr 4.2 04:49:58 33° S 04:51:13 38° SSE 04:56:00 10° E visible
04 Apr 5.2 03:55:44 23° ESE 03:55:44 23° ESE 03:58:22 10° E visible
04 Apr 3.5 05:34:43 19° WSW 05:38:29 73° SSE 05:43:37 10° E visible
05 Apr 3.6 04:40:26 53° SSW 04:41:07 58° SSE 04:46:14 10° E visible
06 Apr 5.1 03:46:06 27° ESE 03:46:06 27° ESE 03:48:45 10° E visible
06 Apr 3.4 05:25:05 22° W 05:28:31 90° NE 05:33:42 10° E visible
07 Apr 3.2 04:30:43 73° SSW 04:31:06 78° SSE 04:36:20 10° E visible
08 Apr 5.1 03:36:21 29° E 03:36:21 29° E 03:38:55 10° E visible
08 Apr 3.4 05:15:20 24° W 05:18:35 81° N 05:23:48 10° E visible
